JP7FSO Weather Reports


time (UTC)temp
C
wind
direction
speed
KPH
gust
KPH
rain 1hr
cm
rain 24hr
cm
rain mn
cm
humidity
%
barometer
mb
20260901091601 21 285 0.0 0.0 0.00 0.00 0.13 89 1009.1
20260901090026 21 285 0.0 0.0 0.00 0.00 0.13 89 1009.0
20260901084612 21 285 0.0 0.0 0.00 0.00 0.13 88 1008.9
20260901083056 21 273 0.0 0.0 0.00 0.00 0.13 88 1009.0
20260901081509 21 283 0.0 0.0 0.00 0.00 0.10 87 1008.9
20260901080114 22 167 0.0 0.0 0.00 0.00 0.10 86 1008.8
20260901074602 22 156 0.0 0.0 0.00 0.00 0.10 86 1008.8
20260901073019 22 152 0.0 0.0 0.00 0.00 0.10 85 1008.9
20260901071523 22 194 0.0 0.0 0.00 0.00 0.10 84 1008.9
20260901070007 22 148 0.0 0.0 0.00 0.00 0.10 82 1008.9
20260901064515 22 167 0.0 0.0 0.00 0.00 0.10 82 1008.9
20260901063116 22 169 0.0 0.0 0.00 0.00 0.10 82 1008.9
20260901061621 22 183 0.0 0.0 0.00 0.00 0.10 81 1008.9
20260901060013 22 228 0.0 0.0 0.00 0.00 0.10 81 1008.9
20260901054513 22 150 1.6 0.0 0.00 0.00 0.10 81 1008.8
20260901053012 22 165 0.0 0.0 0.00 0.00 0.10 81 1009.0
20260901051526 22 127 0.0 0.0 0.00 0.00 0.10 80 1009.0
20260901050011 22 140 1.6 0.0 0.00 0.00 0.10 80 1009.0
20260901044606 22 138 1.6 0.0 0.00 0.00 0.10 80 1009.1
20260901041520 23 141 0.0 0.0 0.00 0.00 0.10 81 1009.3
20260901040004 23 155 0.0 0.0 0.00 0.00 0.10 81 1009.3
20260901034533 23 172 0.0 0.0 0.00 0.00 0.10 81 1009.3
20260901033013 22 150 0.0 0.0 0.00 0.00 0.10 82 1009.3
20260901031512 22 186 0.0 0.0 0.00 0.00 0.10 82 1009.2
20260901030020 22 174 0.0 0.0 0.00 0.00 0.10 83 1009.3
20260901024511 22 203 0.0 0.0 0.00 0.00 0.10 83 1009.3
20260901023008 22 166 0.0 0.0 0.00 0.00 0.10 84 1009.4
20260901021601 22 150 0.0 0.0 0.00 0.00 0.10 84 1009.6
20260901020005 22 124 0.0 0.0 0.00 0.00 0.10 85 1009.9
20260901014607 22 134 0.0 0.0 0.00 0.00 0.10 85 1009.9
20260901013036 22 162 0.0 0.0 0.00 0.00 0.10 86 1009.9
20260901011511 22 163 0.0 0.0 0.00 0.00 0.10 88 1010.0
20260901010120 22 158 0.0 0.0 0.00 0.00 0.10 89 1010.1
20260901004505 21 125 0.0 0.0 0.00 0.00 0.10 89 1010.3
20260901003057 21 139 0.0 0.0 0.00 0.00 0.10 90 1010.3
20260901001507 21 101 0.0 0.0 0.00 0.00 0.10 91 1010.3
20260901000105 21 122 0.0 0.0 0.00 0.00 0.10 92 1010.3
20260831234600 21 122 0.0 0.0 0.00 0.00 0.10 92 1010.3
20260831233013 21 110 0.0 0.0 0.00 0.00 0.10 92 1009.9
20260831231524 21 117 0.0 0.0 0.00 0.00 0.10 93 1010.0
20260831230017 21 94 0.0 0.0 0.00 0.00 0.10 92 1010.0
20260831224512 21 113 0.0 0.0 0.00 0.00 0.10 92 1010.0
20260831223107 21 104 0.0 0.0 0.00 0.00 0.10 92 1009.9
20260831221530 21 104 0.0 0.0 0.00 0.00 0.10 92 1010.2
20260831220105 21 104 0.0 0.0 0.00 0.00 0.10 91 1010.2
20260831214514 21 104 0.0 0.0 0.00 0.00 0.10 91 1009.9
20260831213009 21 104 0.0 0.0 0.00 0.00 0.10 90 1009.9
20260831211606 21 101 0.0 0.0 0.00 0.00 0.10 90 1009.7
20260831210027 20 256 0.0 0.0 0.00 0.00 0.05 89 1009.7
20260831204605 21 256 0.0 0.0 0.00 0.00 0.00 89 1009.9
20260831203016 21 269 0.0 0.0 0.00 0.00 0.00 89 1009.6
20260831201515 21 107 0.0 0.0 0.00 0.00 0.00 89 1008.8
20260831200025 21 107 0.0 0.0 0.00 0.00 0.00 89 1009.0
20260831194613 21 108 0.0 0.0 0.00 0.00 0.00 89 1008.9
20260831193022 21 107 0.0 0.0 0.00 0.00 0.00 89 1008.9
20260831191514 21 108 0.0 0.0 0.00 0.00 0.00 89 1008.9
20260831190040 21 108 0.0 0.0 0.00 0.00 0.00 88 1008.9
20260831184502 21 108 0.0 0.0 0.00 0.00 0.00 88 1008.8
20260831183018 21 107 0.0 0.0 0.00 0.00 0.00 88 1008.8
20260831181508 21 108 0.0 0.0 0.00 0.00 0.00 88 1008.8
20260831180056 21 110 0.0 0.0 0.00 0.00 0.00 88 1008.8
20260831174634 21 97 0.0 0.0 0.00 0.00 0.00 88 1009.1
20260831171509 21 97 0.0 0.0 0.00 0.00 0.00 88 1009.3
20260831170014 21 97 0.0 0.0 0.00 0.00 0.00 88 1009.0
20260831164521 21 97 0.0 0.0 0.00 0.00 0.00 88 1008.9
20260831163018 21 97 0.0 0.0 0.00 0.00 0.00 88 1008.8
20260831161512 21 97 0.0 0.0 0.00 0.00 0.00 88 1008.9
20260831160054 21 99 0.0 0.0 0.00 0.00 0.00 87 1009.0
20260831154524 21 99 0.0 0.0 0.00 0.00 0.00 87 1009.1
20260831153118 21 99 0.0 0.0 0.00 0.00 0.00 87 1009.3
20260831151515 21 99 0.0 0.0 0.00 0.00 0.00 86 1009.3
20260831144524 21 99 0.0 0.0 0.00 0.00 0.03 86 1009.3
20260831143055 21 99 0.0 0.0 0.00 0.00 0.03 85 1009.3
20260831140101 21 108 0.0 0.0 0.00 0.00 0.03 85 1009.6
20260831134516 21 102 0.0 0.0 0.00 0.00 0.03 84 1009.3
20260831133011 21 108 0.0 0.0 0.00 0.00 0.03 84 1009.3
20260831130008 21 109 0.0 0.0 0.00 0.00 0.03 83 1009.4
20260831124503 21 116 0.0 0.0 0.00 0.00 0.03 82 1009.3
20260831123014 22 191 0.0 0.0 0.00 0.00 0.03 82 1009.3
20260831121525 22 191 0.0 0.0 0.00 0.00 0.03 82 1009.4
20260831120032 22 185 0.0 0.0 0.00 0.00 0.03 81 1009.4
20260831114530 22 197 0.0 0.0 0.00 0.00 0.03 81 1009.4
20260831113017 22 199 0.0 0.0 0.00 0.00 0.03 81 1009.3
20260831111607 22 199 0.0 0.0 0.00 0.00 0.03 81 1009.4
20260831110013 22 160 0.0 0.0 0.00 0.00 0.03 81 1009.3
20260831104511 22 175 0.0 0.0 0.00 0.00 0.03 80 1009.3
20260831103110 22 207 0.0 0.0 0.00 0.00 0.03 80 1009.3
20260831101603 22 176 0.0 0.0 0.00 0.00 0.03 79 1009.2
20260831100008 23 188 0.0 0.0 0.00 0.00 0.03 78 1008.9
20260831094532 23 152 0.0 0.0 0.00 0.00 0.03 78 1008.5
20260831093141 23 158 0.0 0.0 0.00 0.00 0.03 77 1008.4